Location: Newark
(47.5833°N, 8.1500°E)
Time: 06:05:36
(UTC+00:00)

Tiros 1 despin weight - Pass Details

Date: 03 November 2020
Orbit: 593 x 642 km, 48.2° (Epoch: 30 November)

Event Time Altitude Azimuth Distance (km) Brightness Sun altitude
Exits shadow 03:37:46 13° 164° (SSE) 1,711 ? -26.8°
Drops below altitude 10° 03:38:25 10° 158° (SSE) 1,917 ? -26.7°
Sets 03:40:57 0° 146° (SE) 2,814 ? -26.3°
